Ansonville, NC

4:37 AM EST on February 11, 2016 (GMT -0500)
Anson County

Weather History for KAFP - January, 2012

Change the Weather History Date:

Wednesday, January 18, 2012

  Actual Average (KCLT) Record (KCLT)
Temperature  
Mean Temperature 44 °F 40 °F  
Max Temperature 57 °F 51 °F 71 °F (1937)
Min Temperature 32 °F 29 °F 10 °F (2003)
Degree Days  
Heating Degree Days 20 25  
Month to date heating degree days 450  
Since 1 July heating degree days 1787  
Cooling Degree Days 0 0  
Month to date cooling degree days 0  
Year to date cooling degree days 0  
Moisture  
Dew Point 36 °F    
Average Humidity 70    
Maximum Humidity 100    
Minimum Humidity 33    
Precipitation  
Precipitation 0.30 in 0.11 in 2.51 in (1943)
Month to date precipitation 2.02  
Year to date precipitation 2.02  
Snow  
Snow 0.00 in 0.10 in 3.50 in (1893)
Month to date snowfall 1.2  
Since 1 July snowfall 1.6  
Snow Depth -    
Sea Level Pressure  
Sea Level Pressure 30.01 in    
Wind  
Wind Speed 6 mph (NNW)    
Max Wind Speed 14 mph    
Max Gust Speed 21 mph    
Visibility 10 miles    
Events Rain    
T = Trace of Precipitation, MM = Missing Value Source: NWS Daily Summary

Daily Weather History Graph

Daily Weather History Graph

Search for Another Location

Airport or City:

Trip Planner

Search our weather history database for the weather conditions in past years. The results will help you decide how hot, cold, wet, or windy it might be!

Date:

Astronomy

Jan. 18, 2012 Rise Set
Actual Time 7:27 AM EST 5:34 PM EST
Civil Twilight 6:59 AM EST 6:01 PM EST
Nautical Twilight 6:28 AM EST 6:32 PM EST
Astronomical Twilight 5:58 AM EST 7:03 PM EST
Moon 2:54 AM EST (1/18) 1:13 PM EST (1/18)
Length of Visible Light 11h 02m
Length of Day
10h 07m
Waning Crescent, 25% of the Moon is Illuminated
Jan 18
Waning Crescent
Jan 23
New
Jan 30
First Quarter
Feb 7
Full
Feb 14
Last Quarter

Hourly Weather History & Observations

Time (EST) Temp. Windchill Dew Point Humidity Pressure Visibility Wind Dir Wind Speed Gust Speed Precip Events Conditions
12:15 AM 55.4 °F - 53.6 °F 94% 29.93 in 10.0 mi South 4.6 mph - N/A   Mostly Cloudy
12:35 AM 55.4 °F - 53.6 °F 94% 29.94 in 10.0 mi SSW 8.1 mph - N/A Rain Light Rain
1:15 AM 55.4 °F - 53.6 °F 94% 29.92 in 10.0 mi WNW 6.9 mph 17.3 mph 0.01 in Rain Light Rain
1:35 AM 55.4 °F - 53.6 °F 94% 29.91 in 10.0 mi SSW 4.6 mph - 0.01 in   Overcast
1:55 AM 55.4 °F - 53.6 °F 94% 29.90 in 10.0 mi SSW 5.8 mph - 0.01 in Rain Light Rain
2:15 AM 55.4 °F - 53.6 °F 94% 29.90 in 10.0 mi South 4.6 mph - N/A   Overcast
2:35 AM 55.4 °F - 53.6 °F 94% 29.88 in 10.0 mi South 6.9 mph - N/A   Overcast
2:55 AM 55.4 °F - 53.6 °F 94% 29.88 in 10.0 mi SSW 6.9 mph - N/A   Overcast
3:15 AM 55.4 °F - 53.6 °F 94% 29.88 in 10.0 mi SSW 6.9 mph - N/A Rain Light Rain
3:35 AM 57.2 °F - 53.6 °F 88% 29.88 in 10.0 mi SW 5.8 mph - N/A Rain Light Rain
3:55 AM 57.2 °F - 55.4 °F 94% 29.88 in 10.0 mi WSW 3.5 mph - N/A Rain Light Rain
4:15 AM 55.4 °F - 53.6 °F 94% 29.88 in 3.0 mi NW 6.9 mph - 0.12 in Rain Heavy Rain
4:35 AM 53.6 °F - 53.6 °F 100% 29.89 in 4.0 mi WNW 6.9 mph - 0.24 in Rain Rain
4:55 AM 53.6 °F - 51.8 °F 94% 29.91 in 5.0 mi Calm Calm - 0.26 in Rain Rain
5:15 AM 53.6 °F - 51.8 °F 94% 29.91 in 5.0 mi WNW 5.8 mph - 0.02 in Rain Light Rain
5:35 AM 53.6 °F - 50.0 °F 88% 29.91 in 10.0 mi NNW 6.9 mph - 0.02 in Rain Rain
5:55 AM 51.8 °F - 50.0 °F 94% 29.93 in 5.0 mi NW 4.6 mph - 0.02 in   Drizzle
6:15 AM 51.8 °F - 50.0 °F 94% 29.94 in 10.0 mi Calm Calm - N/A   Overcast
6:55 AM 50.0 °F - 46.4 °F 87% 29.96 in 10.0 mi NNW 9.2 mph - 0.01 in   Overcast
7:15 AM 50.0 °F - 44.6 °F 82% 29.98 in 10.0 mi NNW 10.4 mph 20.7 mph N/A   Scattered Clouds
7:35 AM 46.4 °F 42.4 °F 42.8 °F 87% 29.99 in 10.0 mi NNW 8.1 mph - N/A   Clear
7:55 AM 46.4 °F 41.9 °F 41.0 °F 81% 30.01 in 10.0 mi North 9.2 mph - N/A   Clear
8:15 AM 46.4 °F 41.5 °F 37.4 °F 71% 30.02 in 10.0 mi North 10.4 mph - N/A   Clear
8:35 AM 46.4 °F 41.5 °F 35.6 °F 66% 30.03 in 10.0 mi North 10.4 mph - N/A   Clear
8:55 AM 46.4 °F 40.7 °F 33.8 °F 62% 30.04 in 10.0 mi North 12.7 mph 18.4 mph N/A   Clear
9:15 AM 44.6 °F 39.2 °F 32.0 °F 61% 30.05 in 10.0 mi North 10.4 mph 17.3 mph N/A   Clear
9:35 AM 44.6 °F 38.4 °F 32.0 °F 61% 30.06 in 10.0 mi NNE 12.7 mph 18.4 mph N/A   Clear
10:15 AM 46.4 °F 41.5 °F 30.2 °F 53% 30.06 in 10.0 mi North 10.4 mph - N/A   Clear
10:35 AM 46.4 °F 40.7 °F 30.2 °F 53% 30.08 in 10.0 mi NNW 12.7 mph 18.4 mph N/A   Unknown
10:55 AM 46.4 °F 40.4 °F 30.2 °F 53% 30.08 in 10.0 mi North 13.8 mph 19.6 mph N/A   Clear
11:15 AM 46.4 °F 40.4 °F 28.4 °F 50% 30.07 in 10.0 mi North 13.8 mph - N/A   Clear
11:35 AM 48.2 °F - 30.2 °F 50% 30.07 in 10.0 mi NW 12.7 mph - N/A   Clear
11:55 AM 50.0 °F - 28.4 °F 43% 30.05 in 10.0 mi North 8.1 mph - N/A   Clear
12:15 PM 50.0 °F - 28.4 °F 43% 30.05 in 10.0 mi NNW 10.4 mph - N/A   Clear
12:35 PM 50.0 °F - 28.4 °F 43% 30.04 in 10.0 mi North 9.2 mph - N/A   Clear
12:55 PM 50.0 °F - 26.6 °F 40% 30.03 in 10.0 mi North 8.1 mph - N/A   Clear
1:15 PM 51.8 °F - 24.8 °F 35% 30.02 in 10.0 mi NNW 10.4 mph 18.4 mph N/A   Clear
1:35 PM 51.8 °F - 26.6 °F 38% 30.02 in 10.0 mi NNW 9.2 mph - N/A   Clear
1:55 PM 51.8 °F - 23.0 °F 33% 30.01 in 10.0 mi NNW 6.9 mph - N/A   Clear
2:15 PM 51.8 °F - 26.6 °F 38% 30.02 in 10.0 mi NNW 9.2 mph - N/A   Clear
2:35 PM 51.8 °F - 24.8 °F 35% 30.01 in 10.0 mi North 8.1 mph - N/A   Clear
2:55 PM 51.8 °F - 24.8 °F 35% 30.02 in 10.0 mi North 6.9 mph - N/A   Clear
3:15 PM 51.8 °F - 26.6 °F 38% 30.03 in 10.0 mi NNW 5.8 mph - N/A   Clear
3:35 PM 51.8 °F - 26.6 °F 38% 30.03 in 10.0 mi NNW 9.2 mph - N/A   Clear
3:55 PM 51.8 °F - 24.8 °F 35% 30.02 in 10.0 mi North 5.8 mph - N/A   Clear
4:15 PM 51.8 °F - 26.6 °F 38% 30.02 in 10.0 mi NNW 5.8 mph - N/A   Clear
4:35 PM 50.0 °F - 24.8 °F 37% 30.03 in 10.0 mi NNW 8.1 mph - N/A   Clear
4:55 PM 50.0 °F - 26.6 °F 40% 30.05 in 10.0 mi NW 4.6 mph - N/A   Clear
5:15 PM 46.4 °F - 26.6 °F 46% 30.05 in 10.0 mi Calm Calm - N/A   Clear
5:35 PM 46.4 °F - 26.6 °F 46% 30.05 in 10.0 mi Calm Calm - N/A   Clear
5:55 PM 42.8 °F 40.1 °F 30.2 °F 61% 30.07 in 10.0 mi ENE 4.6 mph - N/A   Clear
6:15 PM 41.0 °F - 30.2 °F 65% 30.06 in 10.0 mi Calm Calm - N/A   Clear
6:35 PM 41.0 °F - 30.2 °F 65% 30.08 in 10.0 mi Calm Calm - N/A   Clear
6:55 PM 37.4 °F - 32.0 °F 81% 30.08 in 10.0 mi Calm Calm - N/A   Clear
7:15 PM 35.6 °F - 32.0 °F 87% 30.07 in 10.0 mi Calm Calm - N/A   Clear
7:35 PM 35.6 °F - 32.0 °F 87% 30.08 in 10.0 mi Calm Calm - N/A   Clear
7:55 PM 33.8 °F - 32.0 °F 93% 30.07 in 10.0 mi Calm Calm - N/A   Clear
8:15 PM 33.8 °F - 32.0 °F 93% 30.08 in 10.0 mi Calm Calm - N/A   Clear
8:35 PM 33.8 °F - 32.0 °F 93% 30.08 in 10.0 mi Calm Calm - N/A   Clear
8:55 PM 32.0 °F - 30.2 °F 93% 30.07 in 10.0 mi Calm Calm - N/A   Clear
9:15 PM 33.8 °F - 32.0 °F 93% 30.08 in 10.0 mi Calm Calm - N/A   Clear
9:35 PM 35.6 °F - 30.2 °F 81% 30.10 in 10.0 mi Calm Calm - N/A   Clear
9:55 PM 33.8 °F - 30.2 °F 87% 30.10 in 10.0 mi Calm Calm - N/A   Clear
10:35 PM 32.0 °F - 30.2 °F 93% 30.11 in 10.0 mi Calm Calm - N/A   Clear
10:55 PM 33.8 °F 30.8 °F 30.2 °F 87% 30.10 in 10.0 mi NNE 3.5 mph - N/A   Clear
11:15 PM 35.6 °F 32.8 °F 26.6 °F 70% 30.11 in 10.0 mi NE 3.5 mph - N/A   Clear
11:35 PM 35.6 °F 30.7 °F 26.6 °F 70% 30.10 in 10.0 mi NNE 5.8 mph - N/A   Scattered Clouds
11:55 PM 35.6 °F 30.7 °F 24.8 °F 65% 30.11 in 10.0 mi NNE 5.8 mph - N/A   Mostly Cloudy